DECAYED

STARLINK-1575, 46349 (Decayed)

Orbit data source: Space-Track

STARLINK-1575, 46349 was a payload satellite owned by SpaceX/Seattle (US) in LEO that was launched on Thu, 03 Sep 2020 UTC via an FALCON 9 launch vehicle from the Air Force Eastern Test Range (AFETR). Payload-class satellites include a variety of spacecraft equipped with specific instruments for various scientific and technological missions. These include communications satellites like Starlink; space stations such as the ISS; scientific satellites like the Hubble; Earth observation satellites from companies like Planet Labs, Umbra, and HawkEye 360; GPS; miniature CubeSats for education and research; and military/defense satellites.

Not visible in the next 10 days
Identifier
46349, 2020-062AA
Orbit
Decayed
Country
Flag of USUS
Related business
Manufacturer
SpaceX/Seattle
Mission
Decayed Commercial Communications
Bus & Motor
STARLINK, Unknown motor
Mass
260 kg wet, ~248 kg dry
Launch date (UTC)
2020-09-03 (6 years ago)
Launch vehicle
FALCON 9
Launch site
Air Force Eastern Test Range (AFETR)
Object type
Payload
Rocket body
Debris
Shape & HBR
Box + 1 Pan, 10.1 m
Radar Cross Section
13.562 m², Large (>1 m²)

Expand to show TLE details & history
Last TLE update: 3 months ago

TLE from 3 months ago
0 STARLINK-1575
1 46349U 20062AA  26100.20472969  .11472480  12491-4  50704-3 0  9991
2 46349  53.0067 100.3393 0004492 297.8892  62.1700 16.43317278310947
Epoch: 2026-04-10T04:54Z
TLE epoch observation values (Epoch: 2026-04-10T04:54:48.645Z)
Latitude
-0.00002°
Longitude
-171.80514°
Altitude
156.55 km
Speed
7.814 km/s
True Right ascension
06h 41m 21s
True Declination
0° 00' 00"
Sunlit
Object was in daylight at epoch
Visualization orbit readout
Latitude
Unknown
Longitude
Unknown
Altitude
Unknown
Speed
Unknown
Apparent Right ascension
Unknown
Apparent Declination
Unknown
Sunlit
N/A
Visualization observer readout
Local Sidereal Time
16:23:45
Azimuth
Unknown
Elevation
Unknown
Doppler factor
Unknown
Orbital elements
Apogee altitude
160.223 km
Perigee altitude
154.352 km
Semi-major axis
6,535.424 km
Eccentricity
0.00045
Inclination
53.0067°
RAAN
100.3393°
Arg. of periapsis
297.8892°
True anomaly
62.21553°
Mean anomaly
62.17°
Eccentric anomaly
62.19277°
Mean motion
4.10802 °/min
Orbital period
87.63 mins
BSTAR
0.00050704
Loading maneuver chart data...
Computing Atmospheric mass density...

Documentation

Showing up to 5 results
|